GW4177 Weather Reports


time (UTC)temp
F
wind
direction
speed
knots
gust
knots
rain 1hr
in
rain 24hr
in
rain mn
in
humidity
%
barometer
mb
20260510142812 65 304 2.6 2.6 0.00 0.00 0.00 72 1019.7
20260510142309 65 26 0.9 2.6 0.00 0.00 0.00 73 1019.7
20260510141806 65 43 0.9 1.7 0.00 0.00 0.00 73 1019.5
20260510141303 65 9 0.9 1.7 0.00 0.00 0.00 74 1019.7
20260510140801 65 299 1.7 1.7 0.00 0.00 0.00 73 1019.7
20260510140256 65 290 1.7 2.6 0.00 0.00 0.00 74 1019.7
20260510135749 65 336 3.5 5.2 0.00 0.00 0.00 75 1019.6
20260510135245 65 299 2.6 2.6 0.00 0.00 0.00 74 1019.4
20260510134743 64 33 1.7 3.5 0.00 0.00 0.00 76 1019.3
20260510134240 64 35 0.9 1.7 0.00 0.00 0.00 76 1019.1
20260510133736 63 324 0.9 0.9 0.00 0.00 0.00 77 1018.8
20260510133231 63 44 0.9 2.6 0.00 0.00 0.00 77 1018.8
20260510132728 62 10 0.9 0.9 0.00 0.00 0.00 79 1018.6
20260510132225 63 311 2.6 2.6 0.00 0.00 0.00 78 1018.5
20260510131722 62 31 0.9 1.7 0.00 0.00 0.00 78 1018.5
20260510131220 62 54 0.9 0.9 0.00 0.00 0.00 78 1018.3
20260510130716 62 19 0.0 0.9 0.00 0.00 0.00 78 1018.4
20260510130214 62 299 0.9 1.7 0.00 0.00 0.00 80 1018.3
20260510125709 61 38 0.0 2.6 0.00 0.00 0.00 81 1018.3
20260510125206 61 335 0.9 0.9 0.00 0.00 0.00 83 1018.3
20260510124657 60 340 0.0 0.9 0.00 0.00 0.00 84 1018.2
20260510124154 58 339 0.9 0.9 0.00 0.00 0.00 88 1018.1
20260510123649 58 1 0.0 0.0 0.00 0.00 0.00 90 1018.0
20260510123146 58 13 0.0 0.0 0.00 0.00 0.00 88 1017.8
20260510122642 58 14 0.0 0.0 0.00 0.00 0.00 90 1017.6
20260510122138 58 14 0.0 0.0 0.00 0.00 0.00 90 1017.5
20260510121635 57 358 0.0 0.9 0.00 0.00 0.00 92 1017.5
20260510121132 56 324 0.0 0.0 0.00 0.00 0.00 93 1017.6
20260510120630 56 323 0.0 0.0 0.00 0.00 0.00 94 1017.5
20260510120125 55 302 1.7 1.7 0.00 0.00 0.00 95 1017.6
20260510115622 55 334 1.7 2.6 0.00 0.00 0.00 94 1017.2
20260510115120 55 163 0.0 0.0 0.00 0.00 0.00 94 1017.0
20260510114615 55 163 0.0 0.0 0.00 0.00 0.00 93 1017.1
20260510114111 55 163 0.0 0.0 0.00 0.00 0.00 93 1017.2
20260510113607 55 163 0.0 0.0 0.00 0.00 0.00 93 1017.1
20260510113105 55 163 0.0 0.0 0.00 0.00 0.00 93 1017.0
20260510112601 55 163 0.0 0.0 0.00 0.00 0.00 93 1016.8
20260510112057 55 163 0.0 0.0 0.00 0.00 0.00 93 1016.8
20260510111554 55 163 0.0 0.0 0.00 0.00 0.00 93 1016.8
20260510111050 55 163 0.0 0.0 0.00 0.00 0.00 92 1016.8
20260510110546 55 175 0.0 0.0 0.00 0.00 0.00 93 1016.7
20260510110043 55 164 1.7 1.7 0.00 0.00 0.00 94 1016.6
20260510105538 55 162 0.0 0.0 0.00 0.00 0.00 95 1016.9
20260510105033 55 162 0.9 0.9 0.00 0.00 0.00 95 1016.8
20260510104530 55 164 0.0 1.7 0.00 0.00 0.00 95 1016.7
20260510104026 55 227 0.0 0.0 0.00 0.00 0.00 94 1016.6
20260510103524 55 227 0.0 0.0 0.00 0.00 0.00 94 1016.6
20260510103020 56 227 0.0 0.0 0.00 0.00 0.00 94 1016.6
20260510102516 56 227 0.0 0.0 0.00 0.00 0.00 94 1016.5
20260510102012 56 227 0.0 0.0 0.00 0.00 0.00 94 1016.7
20260510101509 56 227 0.0 0.0 0.00 0.00 0.00 93 1016.6
20260510101009 56 227 0.0 0.0 0.00 0.00 0.00 94 1016.6
20260510100504 56 227 0.0 0.0 0.00 0.00 0.00 94 1016.6
20260510100001 56 220 0.0 0.0 0.00 0.00 0.00 93 1016.4
20260510095456 56 219 0.0 0.0 0.00 0.00 0.00 93 1016.3
20260510094955 56 218 0.0 0.0 0.00 0.00 0.00 93 1016.2
20260510094450 56 218 0.0 0.9 0.00 0.00 0.00 93 1016.1
20260510093947 56 351 0.0 0.0 0.00 0.00 0.00 93 1016.0
20260510093442 56 351 0.0 0.0 0.00 0.00 0.00 93 1015.6
20260510092939 56 351 0.0 0.0 0.00 0.00 0.00 93 1015.9
20260510092436 56 351 0.0 0.0 0.00 0.00 0.00 93 1015.8
20260510091936 56 351 0.0 0.0 0.00 0.00 0.00 92 1015.8
20260510091433 56 352 0.0 0.0 0.00 0.00 0.00 92 1015.8
20260510090930 56 320 0.0 0.0 0.00 0.00 0.00 92 1015.9
20260510090426 57 358 0.0 0.0 0.00 0.00 0.00 92 1015.8
20260510085922 57 220 0.0 0.0 0.00 0.00 0.00 91 1015.9
20260510085418 57 173 0.0 0.0 0.00 0.00 0.00 91 1015.9
20260510084912 56 173 0.0 0.0 0.00 0.00 0.00 91 1015.9
20260510084411 56 173 0.9 2.6 0.00 0.00 0.00 92 1015.8
20260510083907 56 169 0.9 1.7 0.00 0.00 0.00 92 1015.8
20260510083404 56 163 0.9 2.6 0.00 0.00 0.00 92 1015.5
20260510082859 56 140 0.0 0.0 0.00 0.00 0.00 92 1016.0
20260510082357 56 1 0.0 0.0 0.00 0.00 0.00 92 1015.6
20260510081855 56 300 0.0 0.0 0.00 0.00 0.00 93 1015.5
20260510081351 56 299 0.0 0.0 0.00 0.00 0.00 93 1015.4
20260510080849 56 299 0.0 0.0 0.00 0.00 0.00 93 1015.1
20260510080342 56 299 0.0 0.0 0.00 0.00 0.00 93 1015.4
20260510075839 55 299 0.0 0.0 0.00 0.00 0.00 93 1015.3
20260510075337 55 300 0.0 0.0 0.00 0.00 0.00 94 1015.3
20260510074833 55 300 0.0 0.0 0.00 0.00 0.00 94 1015.4
20260510074331 55 289 0.0 0.0 0.00 0.00 0.00 95 1015.6
20260510073827 54 319 0.0 0.0 0.00 0.00 0.00 95 1015.5
20260510073323 54 261 0.0 0.9 0.00 0.00 0.00 94 1015.4
20260510072819 54 208 0.0 0.0 0.00 0.00 0.00 94 1015.2
20260510072316 55 207 0.0 0.0 0.00 0.00 0.00 93 1015.0
20260510071813 55 207 0.0 0.0 0.00 0.00 0.00 93 1015.1
20260510071309 55 207 0.0 0.0 0.00 0.00 0.00 93 1014.9
20260510070808 55 207 0.0 0.0 0.00 0.00 0.00 92 1015.0
20260510070304 55 207 0.0 0.0 0.00 0.00 0.00 92 1014.9
20260510065759 55 207 0.0 0.0 0.00 0.00 0.00 92 1015.2
20260510065256 55 207 0.0 0.0 0.00 0.00 0.00 92 1015.2
20260510064753 55 207 0.0 0.0 0.00 0.00 0.00 92 1015.0
20260510064251 55 207 0.0 0.0 0.00 0.00 0.00 92 1015.0
20260510063746 55 207 0.0 0.9 0.00 0.00 0.00 92 1015.2
20260510063242 55 207 0.9 0.9 0.00 0.00 0.00 92 1015.0
20260510062739 56 208 0.0 0.0 0.00 0.00 0.00 92 1015.3
20260510062235 56 208 0.0 0.0 0.00 0.00 0.00 92 1015.2
20260510061731 56 208 0.0 0.0 0.00 0.00 0.00 91 1015.4
20260510061228 56 209 0.0 0.0 0.00 0.00 0.00 91 1015.3
20260510060724 56 209 0.0 0.9 0.00 0.00 0.00 91 1015.3
20260510060221 56 229 0.0 0.0 0.00 0.00 0.00 91 1015.2
20260510055717 56 229 0.0 0.0 0.00 0.00 0.00 91 1015.2
20260510055216 56 230 0.0 0.9 0.00 0.00 0.00 91 1015.3
20260510054715 56 251 0.0 0.0 0.00 0.00 0.00 91 1015.1
20260510054211 57 251 0.0 0.0 0.00 0.00 0.00 91 1015.3
20260510053706 57 251 0.0 0.0 0.00 0.00 0.00 90 1015.2
20260510053203 57 251 0.0 0.0 0.00 0.00 0.00 90 1015.3
20260510052658 57 251 0.0 0.0 0.00 0.00 0.00 90 1015.1
20260510052155 57 251 0.0 0.0 0.00 0.00 0.00 90 1015.0
20260510051650 57 251 0.0 0.0 0.00 0.00 0.00 90 1015.2
20260510051147 58 251 0.0 0.0 0.00 0.00 0.00 89 1015.0
20260510050644 58 251 0.0 0.0 0.00 0.00 0.00 89 1015.1
20260510050142 57 251 0.0 0.0 0.00 0.00 0.00 90 1015.2
20260510045638 57 251 0.0 0.0 0.00 0.00 0.00 90 1015.0
20260510045135 57 251 0.0 0.0 0.00 0.00 0.00 90 1015.0
20260510044631 57 251 0.0 0.0 0.00 0.00 0.00 89 1014.9
20260510044129 57 251 0.0 0.0 0.00 0.00 0.00 89 1014.9
20260510043624 58 251 0.0 0.0 0.00 0.00 0.00 89 1015.1
20260510043121 58 251 0.0 0.0 0.00 0.00 0.00 89 1015.1
20260510042619 58 251 0.0 0.0 0.00 0.00 0.00 88 1014.8
20260510042114 58 251 0.0 0.0 0.00 0.00 0.00 89 1014.9
20260510041612 58 251 0.0 0.0 0.00 0.00 0.00 88 1015.0
20260510041109 59 251 0.0 0.0 0.00 0.00 0.00 87 1014.9
20260510040606 59 251 0.0 0.0 0.00 0.00 0.00 87 1014.7
20260510035558 59 251 0.0 0.0 0.00 0.00 0.00 87 1014.4
20260510035057 60 251 0.0 0.0 0.00 0.00 0.00 87 1014.5
20260510034556 60 251 0.0 0.0 0.00 0.00 0.00 87 1014.2
20260510034052 60 251 0.0 0.0 0.00 0.00 0.00 87 1014.4
20260510033549 60 250 0.0 0.0 0.00 0.00 0.00 86 1014.5
20260510033046 60 251 0.0 0.0 0.00 0.00 0.00 86 1014.4
20260510032543 60 251 0.0 0.0 0.00 0.00 0.00 85 1014.2
20260510032038 61 251 0.0 0.0 0.00 0.00 0.00 84 1014.1
20260510031533 61 251 0.0 0.0 0.00 0.00 0.00 84 1014.2
20260510031029 62 251 0.0 0.0 0.00 0.00 0.00 82 1014.3
20260510030525 62 251 0.0 0.0 0.00 0.00 0.00 81 1014.2
20260510030022 62 251 0.0 0.0 0.00 0.00 0.00 80 1014.1
20260510025519 62 251 0.0 0.0 0.00 0.00 0.00 79 1014.0
20260510025017 62 251 0.0 0.0 0.00 0.00 0.00 80 1013.8
20260510024513 62 251 0.0 0.0 0.00 0.00 0.00 79 1013.7
20260510024010 62 251 0.0 0.0 0.00 0.00 0.00 78 1013.4
20260510023506 62 251 0.0 0.0 0.00 0.00 0.00 78 1013.4
20260510023003 63 251 0.0 0.0 0.00 0.00 0.00 77 1013.4
20260510022502 63 251 0.0 0.0 0.00 0.00 0.00 76 1013.1
20260510022002 64 251 0.0 0.0 0.00 0.00 0.00 75 1012.9
20260510021459 64 251 0.0 0.0 0.00 0.00 0.00 75 1013.0
20260510020956 64 251 0.0 0.0 0.00 0.00 0.00 74 1012.8
20260510020450 64 251 0.0 0.0 0.00 0.00 0.00 73 1012.7
20260510015946 65 251 0.0 0.0 0.00 0.00 0.00 72 1012.7
20260510015437 65 251 0.0 0.0 0.00 0.00 0.00 70 1012.6
20260510014932 66 251 0.0 0.0 0.00 0.00 0.00 69 1012.3
20260510014430 66 251 0.0 0.0 0.00 0.00 0.00 68 1012.3
20260510013926 66 251 0.0 0.0 0.00 0.00 0.00 68 1012.3
20260510013421 67 251 0.0 0.0 0.00 0.00 0.00 67 1012.2
20260510012917 68 251 0.0 0.0 0.00 0.00 0.00 65 1012.1
20260510012412 68 251 0.0 0.0 0.00 0.00 0.00 64 1012.0
20260510011907 69 251 0.0 0.0 0.00 0.00 0.00 62 1012.0
20260510011402 69 251 0.0 0.0 0.00 0.00 0.00 61 1011.6
20260510010858 70 251 0.0 0.0 0.00 0.00 0.00 59 1011.7
20260510010356 70 251 0.0 0.0 0.00 0.00 0.00 59 1011.7
20260510005852 71 251 0.0 0.0 0.00 0.00 0.00 57 1011.6
20260510005349 71 251 0.0 0.0 0.00 0.00 0.00 55 1011.6
20260510004846 72 251 0.0 0.0 0.00 0.00 0.00 54 1011.6
20260510004344 73 251 0.0 0.0 0.00 0.00 0.00 52 1011.6
20260510003842 73 251 0.0 0.0 0.00 0.00 0.00 50 1011.5
20260510003338 73 251 0.0 0.0 0.00 0.00 0.00 47 1011.4
20260510002837 74 251 0.0 0.0 0.00 0.00 0.00 45 1011.4
20260510002334 74 251 0.0 0.0 0.00 0.00 0.00 46 1011.4
20260510001831 74 251 0.0 0.0 0.00 0.00 0.00 45 1011.4
20260510001329 75 251 0.0 0.0 0.00 0.00 0.00 43 1011.4
20260510000825 76 251 0.0 0.0 0.00 0.00 0.00 42 1011.4
20260510000322 76 251 0.0 0.0 0.00 0.00 0.00 40 1011.4
20260509235819 76 251 0.0 0.0 0.00 0.00 0.00 39 1011.4
20260509235315 76 251 0.0 0.0 0.00 0.00 0.00 39 1011.4
20260509234811 77 251 0.0 0.0 0.00 0.00 0.00 39 1011.4
20260509234308 78 251 0.0 0.0 0.00 0.00 0.00 38 1011.3
20260509233806 79 251 0.0 0.0 0.00 0.00 0.00 37 1011.4
20260509233304 80 251 0.0 0.0 0.00 0.00 0.00 33 1011.5
20260509232759 82 251 0.0 0.9 0.00 0.00 0.00 34 1011.5
20260509232257 82 251 0.0 0.0 0.00 0.00 0.00 37 1011.4
20260509231753 82 251 0.0 0.9 0.00 0.00 0.00 36 1011.6
20260509231250 82 251 0.0 0.9 0.00 0.00 0.00 37 1011.3
20260509230748 83 251 0.9 0.9 0.00 0.00 0.00 34 1011.4
20260509230245 82 242 0.9 1.7 0.00 0.00 0.00 31 1011.4
20260509225745 82 235 0.9 0.9 0.00 0.00 0.00 35 1011.7
20260509225241 81 264 0.0 0.0 0.00 0.00 0.00 40 1011.4
20260509224737 81 264 0.0 0.9 0.00 0.00 0.00 38 1011.4
20260509224235 81 20 0.0 0.9 0.00 0.00 0.00 33 1011.4
20260509223731 81 356 0.0 0.0 0.00 0.00 0.00 32 1011.5
20260509223228 81 356 0.0 0.0 0.00 0.00 0.00 31 1011.4
20260509222725 82 264 0.0 0.9 0.00 0.00 0.00 35 1011.4
20260509222220 82 270 0.0 0.9 0.00 0.00 0.00 34 1011.3
20260509221716 82 279 0.0 0.9 0.00 0.00 0.00 35 1011.4
20260509221213 82 302 0.9 1.7 0.00 0.00 0.00 30 1011.4
20260509220708 82 338 1.7 1.7 0.00 0.00 0.00 32 1011.5
20260509220205 82 275 0.0 0.9 0.00 0.00 0.00 37 1011.4
20260509215701 82 264 0.9 0.9 0.00 0.00 0.00 34 1011.4
20260509215158 82 261 0.0 1.7 0.00 0.00 0.00 36 1011.4
20260509214655 82 237 0.0 0.0 0.00 0.00 0.00 36 1011.5
20260509214152 82 298 0.9 1.7 0.00 0.00 0.00 34 1011.8
20260509213649 83 164 0.0 0.0 0.00 0.00 0.00 36 1011.5
20260509213139 82 188 0.0 0.0 0.00 0.00 0.00 34 1011.5
20260509212637 82 154 1.7 2.6 0.00 0.00 0.00 32 1011.6
20260509212133 83 224 0.9 2.6 0.00 0.00 0.00 34 1011.5
20260509211629 83 207 0.9 1.7 0.00 0.00 0.00 32 1011.6
20260509211126 83 316 0.9 2.6 0.00 0.00 0.00 30 1011.9
20260509210623 83 233 0.0 1.7 0.00 0.00 0.00 34 1011.8
20260509210120 82 240 0.9 1.7 0.00 0.00 0.00 31 1011.9
20260509205614 83 337 0.0 0.9 0.00 0.00 0.00 30 1011.9
20260509205109 82 284 0.9 2.6 0.00 0.00 0.00 31 1012.0
20260509204606 83 231 0.9 2.6 0.00 0.00 0.00 30 1011.7
20260509204102 83 312 0.0 2.6 0.00 0.00 0.00 30 1011.8
20260509203552 83 327 0.9 1.7 0.00 0.00 0.00 32 1011.8
20260509203051 83 145 0.0 0.9 0.00 0.00 0.00 32 1011.9
20260509202545 82 49 0.0 0.9 0.00 0.00 0.00 32 1012.0
20260509202041 82 33 0.0 0.9 0.00 0.00 0.00 31 1012.0
20260509201536 82 112 0.0 0.0 0.00 0.00 0.00 33 1012.0
20260509201034 81 27 1.7 1.7 0.00 0.00 0.00 31 1012.2
20260509200533 81 96 0.0 1.7 0.00 0.00 0.00 32 1012.3
20260509200030 82 321 2.6 2.6 0.00 0.00 0.00 30 1012.2
20260509195526 82 25 0.0 1.7 0.00 0.00 0.00 32 1012.3
20260509195026 81 327 0.0 1.7 0.00 0.00 0.00 32 1012.4
20260509194521 82 291 0.9 1.7 0.00 0.00 0.00 29 1012.3
20260509194018 83 309 0.9 1.7 0.00 0.00 0.00 30 1012.4
20260509193513 82 282 0.0 2.6 0.00 0.00 0.00 31 1012.7
20260509193010 82 323 0.9 0.9 0.00 0.00 0.00 31 1012.4
20260509192506 82 287 0.0 0.0 0.00 0.00 0.00 34 1012.7
20260509192001 82 211 1.7 3.5 0.00 0.00 0.00 30 1012.6
20260509191456 81 311 0.9 3.5 0.00 0.00 0.00 31 1012.7
20260509190952 81 239 1.7 3.5 0.00 0.00 0.00 34 1012.7
20260509190449 82 284 1.7 2.6 0.00 0.00 0.00 32 1012.3
20260509185947 82 142 0.0 3.5 0.00 0.00 0.00 32 1012.8
20260509185444 83 307 2.6 3.5 0.00 0.00 0.00 30 1012.6
20260509184941 82 355 0.9 1.7 0.00 0.00 0.00 31 1013.0
20260509184439 80 31 1.7 2.6 0.00 0.00 0.00 33 1012.8
20260509183935 81 31 1.7 2.6 0.00 0.00 0.00 31 1012.7
20260509183434 81 15 1.7 3.5 0.00 0.00 0.00 31 1012.8
20260509182931 82 24 0.0 0.0 0.00 0.00 0.00 33 1012.7
20260509182428 81 335 1.7 1.7 0.00 0.00 0.00 32 1012.8
20260509181925 81 302 1.7 1.7 0.00 0.00 0.00 32 1012.7
20260509181423 80 332 2.6 3.5 0.00 0.00 0.00 30 1012.7
20260509180920 81 14 0.0 0.9 0.00 0.00 0.00 32 1012.9
20260509180415 81 30 0.9 1.7 0.00 0.00 0.00 32 1012.7
20260509175913 81 263 2.6 3.5 0.00 0.00 0.00 34 1012.8
20260509175409 80 109 0.9 0.9 0.00 0.00 0.00 41 1012.9
20260509174905 79 5 0.0 0.0 0.00 0.00 0.00 37 1012.8
20260509174401 80 28 0.0 1.7 0.00 0.00 0.00 45 1013.0
20260509173857 79 142 0.0 3.5 0.00 0.00 0.00 46 1012.9
20260509173357 80 67 1.7 1.7 0.00 0.00 0.00 47 1012.9
20260509172854 80 73 0.0 0.9 0.00 0.00 0.00 51 1012.9
20260509172351 79 50 0.0 0.9 0.00 0.00 0.00 48 1013.1
20260509171847 78 90 1.7 1.7 0.00 0.00 0.00 50 1013.0
20260509171343 77 156 1.7 5.2 0.00 0.00 0.00 48 1013.1
20260509170839 78 160 3.5 7.0 0.00 0.00 0.00 49 1013.1
20260509170335 77 138 2.6 5.2 0.00 0.00 0.00 51 1013.4
20260509165830 77 129 0.0 5.2 0.00 0.00 0.00 53 1013.2
20260509165324 76 140 1.7 3.5 0.00 0.00 0.00 56 1013.1
20260509164820 76 175 2.6 5.2 0.00 0.00 0.00 55 1013.1
20260509164317 76 136 1.7 1.7 0.00 0.00 0.00 57 1013.4
20260509163813 76 154 3.5 3.5 0.00 0.00 0.00 57 1013.5
20260509163310 75 118 0.0 1.7 0.00 0.00 0.00 59 1013.3
20260509162809 76 169 3.5 5.2 0.00 0.00 0.00 56 1013.4
20260509162306 76 165 1.7 3.5 0.00 0.00 0.00 60 1013.4
20260509161759 75 160 1.7 2.6 0.00 0.00 0.00 60 1013.3
20260509161255 76 195 2.6 2.6 0.00 0.00 0.00 59 1013.3
20260509160750 75 181 1.7 2.6 0.00 0.00 0.00 60 1013.3
20260509160247 74 156 2.6 5.2 0.00 0.00 0.00 60 1013.3
20260509155742 74 94 0.0 2.6 0.00 0.00 0.00 64 1013.3
20260509155239 76 174 0.9 1.7 0.00 0.00 0.00 62 1013.6
20260509154735 76 20 0.0 0.0 0.00 0.00 0.00 63 1013.5
20260509154232 74 24 0.0 0.0 0.00 0.00 0.00 64 1013.4
20260509153729 73 6 0.0 1.7 0.00 0.00 0.00 65 1013.3
20260509153225 74 351 0.0 0.9 0.00 0.00 0.00 65 1013.3
20260509152722 72 282 0.0 0.0 0.00 0.00 0.00 66 1013.2
20260509152218 72 254 0.0 0.9 0.00 0.00 0.00 67 1013.5
20260509151715 72 223 1.7 1.7 0.00 0.00 0.00 67 1013.4
20260509151212 70 99 0.9 0.9 0.00 0.00 0.00 70 1013.4
20260509150710 70 215 0.0 1.7 0.00 0.00 0.00 71 1013.4
20260509150208 69 245 0.0 0.9 0.00 0.00 0.00 74 1013.5
20260509145704 68 158 1.7 2.6 0.00 0.00 0.00 76 1013.4
20260509145159 67 161 0.0 1.7 0.00 0.00 0.00 76 1013.6
20260509144656 66 177 0.9 0.9 0.00 0.00 0.00 79 1013.5
20260509144153 65 164 1.7 1.7 0.00 0.00 0.00 79 1013.6
20260509143650 65 106 0.0 0.9 0.00 0.00 0.00 80 1013.5
20260509143148 65 175 0.9 1.7 0.00 0.00 0.00 81 1013.7